Lumberton, NC

5:09 PM EDT on April 26, 2017 (GMT -0400)
Lumberton Municipal

Weather History for KLBT - November, 2011

Change the Weather History Date:

Monday, November 21, 2011

  Actual Average Record
Temperature  
Mean Temperature 68 °F 53 °F  
Max Temperature 78 °F 66 °F 78 °F (2007)
Min Temperature 58 °F 40 °F 24 °F (2000)
Degree Days  
Heating Degree Days 0 13  
Month to date heating degree days 206 209  
Since 1 July heating degree days 380 341  
Cooling Degree Days 3 0  
Month to date cooling degree days 15 10  
Year to date cooling degree days 2312 1904  
Growing Degree Days 18 (Base 50)    
Moisture  
Dew Point 60 °F    
Average Humidity 77    
Maximum Humidity 100    
Minimum Humidity 54    
Precipitation  
Precipitation 0.00 in 0.10 in 1.13 in (2006)
Month to date precipitation 1.05 1.95  
Year to date precipitation 38.45 39.71  
Snow  
Snow 0.00 in - - ()
Month to date snowfall  
Since 1 July snowfall  
Since 1 September snowfall  
Snow Depth -    
Sea Level Pressure  
Sea Level Pressure 30.21 in    
Wind  
Wind Speed 4 mph (WSW)    
Max Wind Speed 13 mph    
Max Gust Speed 22 mph    
Visibility 9 miles    
Events      
T = Trace of Precipitation, MM = Missing Value Source: NWS Daily Summary

Daily Weather History Graph

Daily Weather History Graph

Search for Another Location

Airport or City:

Trip Planner

Search our weather history database for the weather conditions in past years. The results will help you decide how hot, cold, wet, or windy it might be!

Date:

Astronomy

Nov. 21, 2011 Rise Set
Actual Time 6:55 AM EST 5:08 PM EST
Civil Twilight 6:28 AM EST 5:35 PM EST
Nautical Twilight 5:57 AM EST 6:06 PM EST
Astronomical Twilight 5:27 AM EST 6:36 PM EST
Moon 2:40 AM EST (11/21) 2:22 PM EST (11/21)
Length of Visible Light 11h 07m
Length of Day
10h 12m
Waning Crescent, 18% of the Moon is Illuminated
Nov 21
Waning Crescent
Nov 25
New
Dec 2
First Quarter
Dec 10
Full
Dec 17
Last Quarter

Hourly Weather History & Observations

Time (EST) Temp. Dew Point Humidity Pressure Visibility Wind Dir Wind Speed Gust Speed Precip Events Conditions
12:54 AM 63.0 °F 60.1 °F 90% 30.23 in 10.0 mi SW 5.8 mph - N/A   Clear
1:54 AM 61.0 °F 59.0 °F 93% 30.22 in 10.0 mi WSW 4.6 mph - N/A   Clear
2:54 AM 64.0 °F 60.1 °F 87% 30.22 in 10.0 mi SW 6.9 mph - N/A   Overcast
3:54 AM 63.0 °F 60.1 °F 90% 30.22 in 10.0 mi SW 5.8 mph - N/A   Overcast
4:54 AM 63.0 °F 60.1 °F 90% 30.22 in 10.0 mi WSW 4.6 mph - N/A   Unknown
5:54 AM 63.0 °F 60.1 °F 90% 30.23 in 10.0 mi SW 4.6 mph - N/A   Mostly Cloudy
6:54 AM 62.1 °F 59.0 °F 90% 30.25 in 10.0 mi SW 3.5 mph - N/A   Clear
7:54 AM 63.0 °F 60.1 °F 90% 30.27 in 8.0 mi SW 4.6 mph - N/A   Mostly Cloudy
8:54 AM 64.0 °F 61.0 °F 90% 30.27 in 9.0 mi WSW 6.9 mph - N/A   Mostly Cloudy
9:54 AM 68.0 °F 62.1 °F 81% 30.26 in 10.0 mi West 6.9 mph - N/A   Clear
10:54 AM 72.0 °F 62.1 °F 71% 30.25 in 10.0 mi West 10.4 mph - N/A   Partly Cloudy
11:54 AM 73.9 °F 62.1 °F 66% 30.22 in 10.0 mi West 9.2 mph - N/A   Clear
12:54 PM 75.9 °F 62.1 °F 62% 30.18 in 10.0 mi WSW 3.5 mph - N/A   Clear
1:54 PM 77.0 °F 62.1 °F 60% 30.16 in 10.0 mi WSW 6.9 mph - N/A   Clear
2:54 PM 77.0 °F 61.0 °F 58% 30.14 in 10.0 mi WSW 5.8 mph - N/A   Scattered Clouds
3:54 PM 78.1 °F 61.0 °F 56% 30.15 in 10.0 mi West 5.8 mph - N/A   Scattered Clouds
4:54 PM 73.9 °F 60.1 °F 62% 30.17 in 10.0 mi WNW 3.5 mph - N/A   Partly Cloudy
5:54 PM 68.0 °F 60.1 °F 76% 30.18 in 10.0 mi Calm Calm - N/A   Clear
6:54 PM 63.0 °F 60.1 °F 90% 30.19 in 10.0 mi Calm Calm - N/A   Clear
7:54 PM 61.0 °F 59.0 °F 93% 30.19 in 8.0 mi Calm Calm - N/A   Clear
8:54 PM 60.1 °F 57.9 °F 93% 30.19 in 7.0 mi Calm Calm - N/A   Clear
9:54 PM 59.0 °F 57.9 °F 96% 30.19 in 6.0 mi Calm Calm - N/A   Clear
10:54 PM 57.9 °F 57.0 °F 97% 30.17 in 6.0 mi Calm Calm - N/A   Clear
11:54 PM 59.0 °F 57.9 °F 96% 30.16 in 5.0 mi ESE 3.5 mph - N/A   Clear